Location: Unspecified
(42.3650°N, 71.1030°W)
Time: 03:54:57
(UTC+00:00)

Explorer 11/Cluster Stage 4 - Pass Details

Date: 30 June 2024
Orbit: 465 x 1216 km, 28.8° (Epoch: 13 July)

Event Time Altitude Azimuth Distance (km) Brightness Sun altitude
Rises 02:51:20 0° 257° (WSW) 4,074 10.4 -19.2°
Reaches altitude 10° 02:55:40 10° 236° (SW) 3,151 9.6 -19.5°
Maximum altitude 02:59:45 15° 205° (SSW) 2,790 9.0 -19.9°
Enters shadow 03:00:05 15° 202° (SSW) 2,791 9.0 -19.9°
Drops below altitude 10° 03:03:47 10° 174° (S) 3,110 - -20.2°
Sets 03:08:02 0° 153° (SSE) 3,991 - -20.5°
